This is the latest recevied weather packets stored in our database for station/object SR5NLK-1. If no packets are shown the sender has not sent any weather packets the latest 10 day(s).
| Time | Temp. | Humidity | Pressure | Rain* | Wind** | Luminosity | Snow |
|---|---|---|---|---|---|---|---|
| 1777794604 | 32.22° C | 22% | 1046.9 hPa | 0 mm | - | - | - |
| 1777794304 | 32.78° C | 21% | 1002.6 hPa | 0 mm | - | - | - |
| 1777794004 | 33.33° C | 21% | 1097.2 hPa | 0 mm | - | - | - |
| 1777793704 | 33.33° C | 21% | 1040.3 hPa | 0 mm | - | - | - |
| 1777793404 | 33.89° C | 21% | 1046 hPa | 0 mm | - | - | - |
| 1777793223 | 34.44° C | 21% | 1090.9 hPa | 0 mm | - | - | - |
| 1777793104 | 34.44° C | 21% | 1047.8 hPa | 0 mm | - | - | - |
| 1777792804 | 33.89° C | 23% | 1018.7 hPa | 0 mm | - | - | - |
| 1777792504 | 33.89° C | 23% | 1052.5 hPa | 0 mm | - | - | - |
| 1777792204 | 33.89° C | 23% | 1042.1 hPa | 0 mm | - | - | - |
| 1777791904 | 33.89° C | 23% | 1036.4 hPa | 0 mm | - | - | - |
| 1777791604 | 33.33° C | 24% | 961.1 hPa | 0 mm | - | - | - |
| 1777791304 | 32.22° C | 25% | 1049.1 hPa | 0 mm | - | - | - |
| 1777791243 | 31.67° C | 25% | 1087.8 hPa | 0 mm | - | - | - |
| 1777791004 | 31.11° C | 25% | 1064.3 hPa | 0 mm | - | - | - |
| 1777790704 | 30.56° C | 25% | 1084.7 hPa | 0 mm | - | - | - |
| 1777790404 | 30.56° C | 25% | 1051.2 hPa | 0 mm | - | - | - |
| 1777790104 | 30° C | 26% | 1053.5 hPa | 0 mm | - | - | - |
| 1777789804 | 30° C | 25% | 1048.6 hPa | 0 mm | - | - | - |
| 1777789504 | 30.56° C | 25% | 1081.5 hPa | 0 mm | - | - | - |
| 1777789264 | 30.56° C | 25% | 1027.1 hPa | 0 mm | - | - | - |
| 1777789204 | 30.56° C | 25% | 1035 hPa | 0 mm | - | - | - |
| 1777788904 | 31.11° C | 25% | 1058.6 hPa | 0 mm | - | - | - |
| 1777788604 | 30.56° C | 26% | 1030.2 hPa | 0 mm | - | - | - |
| 1777788304 | 30.56° C | 26% | 1050.4 hPa | 0 mm | - | - | - |
* Rain latest hour (hover to see other rain measurements)
** Current wind speed in m/s (hover to see current wind gust speed)